Regional Weather Roundup
Issued by NWS New Orleans/Baton Rouge, LA

Home | Current Version | Previous Version | Text Only | Print | Product List | Glossary Off
Versions: 1 2 3 4 5 6 7 8 9 10 11 12 13 14 15 16 17 18 19 20 21 22 23 24 25 26 27 28 29 30 31 32 33 34 35 36 37 38 39 40 41 42 43 44 45 46 47 48 49 50

808
ASUS44 KLIX 281210
RWRLIX
NEW ORLEANS REGIONAL WEATHER ROUNDUP
NATIONAL WEATHER SERVICE NEW ORLEANS LA
700 AM CDT THU AUG 28 2014

NOTE: "FAIR" INDICATES FEW OR NO CLOUDS BELOW 12,000 FEET WITH NO
      SIGNIFICANT WEATHER AND/OR OBSTRUCTIONS TO VISIBILITY.
      SKY/WX - SKY CONDITION AND SIGNIFICANT WEATHER.
      TMP - AIR TEMPERATURE.     DP    - DEWPOINT TEMPERATURE.
      RH  - RELATIVE HUMIDITY.   PRES  - PRESSURE.
      HI  - HEAT INDEX.          WCI   - WIND CHILL INDEX.

*  THESE STATIONS ARE NOT NWS OR FAA STATIONS AND ARE NOT UNDER
   NWS QUALITY CONTROL.

LAZ038-040-048-061>063-065>067-069-281300-
SOUTHEAST LOUISIANA

CITY           SKY/WX    TMP DP  RH WIND       PRES   REMARKS
N.O. AUDUBON     N/A     82  76  82 MISG        N/A
6HR MIN TEMP:  79; 6HR MAX TEMP:  83;

N.O. INTL ARPT MOCLDY    80  75  84 E3        29.97S
6HR MIN TEMP:  79; 6HR MAX TEMP:  81;

N.O. LAKEFRONT MOCLDY    82  76  81 E5        29.98R
6HR MIN TEMP:  79; 6HR MAX TEMP:  82;

N.O. DOWNTOWN*   N/A     82  72  69 NE3       29.98R
6HR MIN TEMP:  81; 6HR MAX TEMP:  82;

SLIDELL        MOCLDY    75  72  90 CALM      29.98R
6HR MIN TEMP:  75; 6HR MAX TEMP:  76;

BATON ROUGE    PTCLDY    75  73  93 NE3       29.98R
6HR MIN TEMP:  75; 6HR MAX TEMP:  76;

BOOTHVILLE     MOCLDY    82  76  81 CALM      29.98R
6HR MIN TEMP:  80; 6HR MAX TEMP:  82;

BELLE CHASSE   CLOUDY    76  73  91 CALM      29.97R
6HR MIN TEMP:  74; 6HR MAX TEMP:  77; 6HR PCP: TRACE;

BOGALUSA*      PTSUNNY   74  71  89 CALM      30.01R
6HR MIN TEMP:  74; 6HR MAX TEMP:  77;

GALLIANO*      NOT AVBL
NEW ROADS*       N/A     75  74  99 CALM      29.98R FOG
6HR MIN TEMP:  73; 6HR MAX TEMP:  76;

GONZALES*        N/A     75  75  99 CALM      29.97S
6HR MIN TEMP:  74; 6HR MAX TEMP:  76;

HAMMOND*       PTCLDY    75  72  88 CALM      30.00S
HOUMA*         PTCLDY    77  73  88 NE3       29.96S
PORT FOURCHON* MOSUNNY   82  75  78 E7        29.97S

$$

MSZ070-080>082-281300-
SOUTHERN MISSISSIPPI

CITY           SKY/WX    TMP DP  RH WIND       PRES   REMARKS
MCCOMB         CLOUDY    73  71  93 CALM      30.01R FOG
6HR MIN TEMP:  73; 6HR MAX TEMP:  77;

GULFPORT       MOCLDY    78  72  81 NE3       29.98S
6HR MIN TEMP:  77; 6HR MAX TEMP:  79;

BILOXI         CLOUDY    77  73  86 E5        29.99R
6HR MIN TEMP:  76; 6HR MAX TEMP:  80;

PASCAGOULA     CLOUDY    75  73  93 CALM      30.00R
6HR MIN TEMP:  72; 6HR MAX TEMP:  75;

STENNIS ARPT*  MOCLDY   N/A N/A N/A N3        29.99

$$

COASTAL OBSERVATIONS
LAKE AND NEARSHORE STATIONS

STATION/POSITION TIME  TEMP    WIND        PRES    WAVE
                       AIR SEA DIR/SP/G            HT/PER
                 (UTC) (F)     (DEG/KT/KT) (MB)    (FT/S)
PASCAGOULA       1200   79      30/  4/  6 1015.2
WAVELAND YACHT   1200   79      70/  7/  8 1014.6
GRAND ISLE       1200   83 83   70/  8/ 11 1015.2
SOUTHWEST PASS   1200   84 88  100/ 10/ 11 1015.0
NEW CANAL        1200   80 84   80/  3/  4 1015.5
SHELL BEACH      1200   83 81   70/  5/  6 1014.9

OFFSHORE STATIONS

STATION/POSITION TIME  TEMP    WIND        PRES    WAVE
                       AIR SEA DIR/SP/G            HT/PER
                 (UTC) (F)     (DEG/KT/KT) (MB)    (FT/S)
64 S DAUPHIN ISL 1111   84 85   90/ 10/ 12 1015.2

$$




USA.gov is the U.S. government's official web portal to all federal, state and local government web resources and services.